When you browse on this site, cookies collect data to enhance your experience and personalize the content and advertising you see.
Visit our Privacy Policy to learn more. By continuing to use the site, you agree to this use of cookies and data.
  • En España
  • Lista de países
  • Para 7 días
  • Temperatura del agua
  • Mapa Satelital
  • El tiempo en el mapa
  • Informadores
  • user-avatar
    Iniciar sesión

    Tiempo cada hora Zhiryatino

    Hoy, 17 Noviembre, Sábado

    Tiempo Temperatura Precipitaciones Viento Presión Humedad
    00:00 -5°C° 0 mm 3 mps 761 mmHg 26%
    01:00 -5°C° 0 mm 3 mps 761 mmHg 26%
    02:00 -4°C° 0 mm 2 mps 761 mmHg 25%
    03:00 -4°C° 0 mm 2 mps 761 mmHg 25%
    04:00 -4°C° 0 mm 2 mps 761 mmHg 24%
    05:00 -4°C° 0 mm 2 mps 760 mmHg 24%
    06:00 -4°C° 0 mm 2 mps 760 mmHg 23%
    07:00 -4°C° 0 mm 2 mps 760 mmHg 23%
    08:00 -4°C° 0 mm 2 mps 760 mmHg 22%
    09:00 -3°C° 0 mm 2 mps 760 mmHg 20%
    10:00 -2°C° 0 mm 2 mps 760 mmHg 19%
    11:00 +1°C° 0 mm 2 mps 760 mmHg 17%
    12:00 +2°C° 0 mm 1 mps 759 mmHg 18%
    13:00 +2°C° 0 mm 1 mps 759 mmHg 20%
    14:00 +2°C° 0 mm 1 mps 758 mmHg 23%
    15:00 +1°C° 0 mm 1 mps 758 mmHg 24%
    16:00 +1°C° 0 mm 1 mps 757 mmHg 24%
    17:00 0°C° 0 mm 1 mps 757 mmHg 25%
    18:00 0°C° 0 mm 1 mps 756 mmHg 25%
    19:00 0°C° 0 mm 1 mps 756 mmHg 26%
    20:00 -2°C° 0 mm 2 mps 755 mmHg 26%
    21:00 -3°C° 0 mm 2 mps 755 mmHg 27%
    22:00 -3°C° 0 mm 2 mps 754 mmHg 29%
    23:00 -4°C° 0 mm 3 mps 754 mmHg 30%

    Mañana, 18 Noviembre, Domingo

    Tiempo Temperatura Precipitaciones Viento Presión Humedad
    00:00 -4°C° 0 mm 3 mps 753 mmHg 31%
    01:00 -4°C° 0 mm 3 mps 752 mmHg 32%
    02:00 -4°C° 0 mm 3 mps 752 mmHg 34%
    03:00 -4°C° 0 mm 3 mps 751 mmHg 35%
    04:00 -4°C° 0 mm 4 mps 750 mmHg 37%
    05:00 -4°C° 0 mm 4 mps 750 mmHg 39%
    06:00 -4°C° 0 mm 4 mps 749 mmHg 41%
    07:00 -4°C° 0 mm 4 mps 749 mmHg 44%
    08:00 -4°C° 0 mm 3 mps 749 mmHg 46%
    09:00 -2°C° 0.1 mm 3 mps 748 mmHg 48%
    10:00 -2°C° 0.1 mm 3 mps 748 mmHg 50%
    11:00 -1°C° 0.1 mm 3 mps 748 mmHg 52%
    12:00 -1°C° 0.1 mm 3 mps 748 mmHg 54%
    13:00 -1°C° 0.1 mm 3 mps 748 mmHg 55%
    14:00 -1°C° 0.1 mm 2 mps 748 mmHg 57%
    15:00 -2°C° 0.1 mm 2 mps 748 mmHg 60%
    16:00 -2°C° 0.1 mm 2 mps 748 mmHg 63%
    17:00 -3°C° 0.1 mm 2 mps 748 mmHg 66%
    18:00 -1°C° 0.1 mm 1 mps 748 mmHg 68%
    19:00 -1°C° 0.1 mm 1 mps 748 mmHg 70%
    20:00 -1°C° 0.1 mm 1 mps 748 mmHg 72%
    21:00 -1°C° 0 mm 1 mps 748 mmHg 72%
    22:00 -2°C° 0 mm 0 mps 748 mmHg 73%
    23:00 -2°C° 0 mm 0 mps 748 mmHg 73%

    Pasado mañana, 19 Noviembre, Lunes

    Tiempo Temperatura Precipitaciones Viento Presión Humedad
    00:00 -2°C° 0 mm 0 mps 749 mmHg 73%
    01:00 -2°C° 0 mm 0 mps 749 mmHg 74%
    02:00 -2°C° 0 mm 0 mps 749 mmHg 74%
    03:00 -3°C° 0 mm 0 mps 749 mmHg 74%
    04:00 -3°C° 0 mm 0 mps 749 mmHg 74%
    05:00 -3°C° 0 mm 0 mps 750 mmHg 74%
    06:00 -2°C° 0 mm 1 mps 750 mmHg 74%
    07:00 -1°C° 0 mm 1 mps 750 mmHg 74%
    08:00 -1°C° 0 mm 1 mps 750 mmHg 74%
    09:00 -2°C° 0 mm 2 mps 751 mmHg 71%
    10:00 -2°C° 0 mm 2 mps 751 mmHg 68%
    11:00 -1°C° 0 mm 2 mps 751 mmHg 65%
    12:00 -1°C° 0 mm 2 mps 751 mmHg 66%
    13:00 -1°C° 0 mm 3 mps 751 mmHg 67%
    14:00 0°C° 0 mm 3 mps 751 mmHg 68%
    15:00 -1°C° 0 mm 3 mps 751 mmHg 73%
    16:00 -2°C° 0 mm 3 mps 751 mmHg 78%
    17:00 -2°C° 0 mm 3 mps 752 mmHg 83%
    18:00 -2°C° 0 mm 3 mps 752 mmHg 85%
    19:00 -2°C° 0 mm 3 mps 752 mmHg 87%
    20:00 -2°C° 0 mm 3 mps 752 mmHg 89%
    21:00 -2°C° 0 mm 3 mps 752 mmHg 89%
    22:00 -3°C° 0 mm 4 mps 752 mmHg 90%
    23:00 -3°C° 0 mm 4 mps 752 mmHg 90%

    20 Noviembre, Martes

    Tiempo Temperatura Precipitaciones Viento Presión Humedad
    00:00 -3°C° 0 mm 4 mps 752 mmHg 90%
    01:00 -3°C° 0 mm 4 mps 752 mmHg 90%
    02:00 -3°C° 0 mm 4 mps 752 mmHg 90%
    03:00 -3°C° 0 mm 4 mps 752 mmHg 91%
    04:00 -3°C° 0 mm 4 mps 751 mmHg 91%
    05:00 -3°C° 0 mm 4 mps 751 mmHg 92%
    06:00 -3°C° 0 mm 4 mps 751 mmHg 91%
    07:00 -3°C° 0 mm 4 mps 751 mmHg 90%
    08:00 -3°C° 0 mm 4 mps 752 mmHg 89%
    09:00 -2°C° 0 mm 4 mps 752 mmHg 86%
    10:00 -2°C° 0 mm 4 mps 752 mmHg 83%
    11:00 -2°C° 0 mm 4 mps 752 mmHg 80%
    12:00 -2°C° 0 mm 4 mps 751 mmHg 79%
    13:00 -1°C° 0 mm 4 mps 751 mmHg 78%
    14:00 -1°C° 0 mm 4 mps 751 mmHg 78%
    15:00 -1°C° 0 mm 3 mps 751 mmHg 81%
    16:00 -2°C° 0 mm 3 mps 751 mmHg 85%
    17:00 -2°C° 0 mm 2 mps 751 mmHg 88%
    18:00 -2°C° 0 mm 2 mps 751 mmHg 88%
    19:00 -3°C° 0 mm 2 mps 751 mmHg 89%
    20:00 -3°C° 0 mm 2 mps 751 mmHg 89%
    21:00 -3°C° 0 mm 2 mps 751 mmHg 88%
    22:00 -3°C° 0 mm 2 mps 751 mmHg 87%
    23:00 -1°C° 0 mm 1 mps 751 mmHg 87%

    21 Noviembre, Miércoles

    Tiempo Temperatura Precipitaciones Viento Presión Humedad
    00:00 -1°C° 0 mm 1 mps 750 mmHg 86%
    01:00 -1°C° 0 mm 1 mps 750 mmHg 85%
    02:00 -1°C° 0 mm 1 mps 750 mmHg 84%
    03:00 -1°C° 0 mm 1 mps 750 mmHg 84%
    04:00 -1°C° 0 mm 1 mps 750 mmHg 83%
    05:00 -1°C° 0 mm 1 mps 750 mmHg 83%
    06:00 0°C° 0 mm 1 mps 750 mmHg 81%
    07:00 0°C° 0 mm 1 mps 750 mmHg 79%
    08:00 0°C° 0 mm 1 mps 750 mmHg 77%
    09:00 -2°C° 0 mm 2 mps 750 mmHg 73%
    10:00 -2°C° 0 mm 2 mps 750 mmHg 69%
    11:00 -1°C° 0 mm 2 mps 750 mmHg 65%
    12:00 -1°C° 0 mm 2 mps 749 mmHg 65%
    13:00 -1°C° 0 mm 2 mps 749 mmHg 65%
    14:00 -1°C° 0 mm 2 mps 749 mmHg 65%
    15:00 -2°C° 0 mm 2 mps 749 mmHg 68%
    16:00 -2°C° 0 mm 2 mps 749 mmHg 71%
    17:00 -2°C° 0 mm 2 mps 749 mmHg 74%
    18:00 -3°C° 0 mm 2 mps 749 mmHg 76%
    19:00 -3°C° 0 mm 2 mps 749 mmHg 77%
    20:00 -4°C° 0 mm 3 mps 749 mmHg 78%
    21:00 -3°C° 0 mm 2 mps 749 mmHg 78%
    22:00 -3°C° 0 mm 2 mps 750 mmHg 78%
    23:00 -3°C° 0 mm 2 mps 750 mmHg 78%

    22 Noviembre, Jueves

    Tiempo Temperatura Precipitaciones Viento Presión Humedad
    00:00 -3°C° 0 mm 2 mps 750 mmHg 78%
    01:00 -3°C° 0 mm 2 mps 750 mmHg 77%
    02:00 -3°C° 0 mm 2 mps 750 mmHg 77%
    03:00 -3°C° 0 mm 2 mps 750 mmHg 77%
    04:00 -3°C° 0 mm 2 mps 749 mmHg 77%
    05:00 -4°C° 0 mm 3 mps 749 mmHg 77%
    06:00 -3°C° 0 mm 2 mps 749 mmHg 79%
    07:00 -4°C° 0 mm 2 mps 749 mmHg 80%
    08:00 -4°C° 0 mm 2 mps 749 mmHg 81%
    09:00 -4°C° 0 mm 3 mps 749 mmHg 76%
    10:00 -4°C° 0 mm 3 mps 749 mmHg 71%
    11:00 -2°C° 0 mm 3 mps 749 mmHg 67%
    12:00 -3°C° 0 mm 4 mps 749 mmHg 67%
    13:00 -3°C° 0 mm 4 mps 748 mmHg 67%
    14:00 -4°C° 0 mm 5 mps 748 mmHg 67%
    15:00 -4°C° 0 mm 5 mps 748 mmHg 71%
    16:00 -5°C° 0 mm 5 mps 748 mmHg 75%
    17:00 -5°C° 0 mm 5 mps 748 mmHg 78%
    18:00 -6°C° 0 mm 5 mps 748 mmHg 81%
    19:00 -5°C° 0 mm 4 mps 748 mmHg 83%
    20:00 -5°C° 0 mm 4 mps 748 mmHg 85%
    21:00 -5°C° 0 mm 4 mps 749 mmHg 86%
    22:00 -5°C° 0 mm 4 mps 749 mmHg 87%
    23:00 -5°C° 0 mm 3 mps 749 mmHg 87%
    Mostrar más